Cloud_Cover
14 5 3 0 3 1 5 100 100 52 92 100 89 31 57 63 94 53 77 97 88 75 100 87 98 100 97 44 45 91 96 37 28 14 100 100 100 86 90 86 5 7 5 12 99 100 51 56 94
19 4 5 42 5 10 35 78 60 99 99 100 33 5 75 74 62 34 49 95 96 64 60 74 81 77 76 16 90 45 5 9 10 68 100 100 54 5 42 4 6 5 20 100 94 3 2 0 2
5 36 66 46 7 14 75 79 72 100 96 98 7 27 85 36 50 100 38 22 5 44 61 85 44 58 92 16 93 78 80 29 29 90 60 57 44 96 5 4 5 20 98 98 5 0 0 0 0
60 70 26 8 5 6 5 6 7 15 5 5 5 19 10 30 39 19 61 80 100 78 92 53 99 100 69 93 100 100 96 99 95 100 31 14 5 34 13 45 97 100 63 0 0 0 0 0 0
77 1 0 5 5 21 34 3 3 0 4 0 2 7 51 94 17 49 8 36 99 55 90 16 34 94 100 96 100 100 100 100 92 30 71 67 15 95 92 95 20 3 0 0 0 0 0 0 0
72 5 12 4 0 0 0 8 5 2 0 0 28 100 74 41 24 87 79 99 100 100 100 100 95 100 100 100 100 100 100 100 83 81 15 86 100 39 98 76 0 0 0 0 0 0 0 0 0
100 36 3 60 6 3 2 0 31 8 0 0 0 28 74 23 84 65 10 12 6 6 5 5 10 98 99 100 99 99 100 96 5 24 100 100 32 74 13 1 0 0 0 0 0 0 0 0 0
34 86 2 4 98 99 98 100 100 15 0 0 0 22 87 0 0 0 0 0 3 3 3 5 5 16 84 100 100 100 98 5 100 100 78 5 3 0 0 0 0 0 0 0 0 0 0 0 0
5 6 3 17 66 99 100 100 99 100 100 100 1 0 0 0 0 0 6 39 40 48 56 70 15 71 87 97 100 95 100 100 99 26 4 0 1 8 94 43 0 0 0 0 0 0 0 0 0
21 5 5 28 94 11 5 65 51 3 5 26 82 0 0 0 0 1 38 45 52 52 37 70 31 100 100 98 100 100 100 65 15 30 0 0 0 0 100 73 12 0 0 0 0 0 0 0 0
100 5 5 5 83 91 57 37 96 3 0 4 6 10 11 20 6 88 26 7 9 2 5 5 98 100 100 70 50 49 41 24 2 0 0 0 0 0 0 0 0 0 0 0 0 0 0 0 0
100 95 5 5 12 16 100 65 5 8 4 4 1 35 85 97 10 5 5 5 1 0 8 15 100 100 52 35 19 6 3 0 0 0 0 0 0 0 0 0 0 0 0 0 0 0 0 0 0
74 75 9 5 5 28 62 98 52 2 8 4 0 0 8 93 97 2 5 3 2 0 2 5 5 5 3 0 0 0 0 0 0 0 0 0 0 0 0 0 0 0 0 0 0 0 0 0 0
100 64 94 7 7 10 26 8 80 6 1 0 0 1 5 5 100 99 36 5 4 0 0 0 1 5 3 0 0 0 0 0 0 0 0 0 0 0 0 0 0 0 0 0 0 0 0 0 0
84 100 77 29 4 4 4 5 5 5 8 48 0 0 7 5 10 100 38 29 18 4 0 0 0 0 0 0 0 0 0 0 0 0 0 0 0 0 0 0 0 0 0 0 0 0 0 0 0
100 100 100 29 12 5 4 6 5 17 14 7 5 0 38 95 14 14 98 51 6 12 8 4 3 0 0 0 0 0 0 0 0 0 0 0 0 0 0 0 0 0 0 0 0 0 0 0 0
100 100 100 93 100 86 4 4 5 13 27 14 5 17 2 36 100 27 78 89 6 39 100 8 5 4 0 0 0 0 0 0 0 0 0 0 0 0 0 0 0 0 0 0 0 0 0 0 3
66 98 100 100 100 100 90 37 5 9 10 6 5 70 89 71 89 100 91 96 5 24 100 99 5 0 0 0 2 1 1 0 0 0 0 0 0 0 0 2 4 3 1 1 0 0 2 1 5
5 5 4 100 100 100 100 100 100 100 73 100 8 49 24 100 97 100 89 50 0 5 21 80 100 11 0 0 0 0 0 0 0 0 0 0 0 0 0 0 4 78 5 71 6 3 3 2 5
9 2 2 0 4 100 100 100 100 100 100 100 100 93 99 38 78 6 37 5 4 4 89 70 100 100 17 0 0 0 0 0 0 0 0 0 0 0 0 0 3 4 4 37 88 14 12 24 50
5 4 5 5 0 17 100 100 100 100 100 100 100 96 100 86 100 23 52 12 5 5 24 95 99 100 100 27 9 0 0 0 0 0 0 0 0 0 0 0 0 0 0 2 8 89 100 80 54
44 14 92 9 5 4 0 35 100 100 100 100 100 100 100 100 100 100 84 55 50 39 5 6 87 99 92 100 5 5 0 0 0 0 0 0 0 0 0 0 0 0 0 0 0 3 48 49 13
5 10 98 5 5 4 2 0 0 5 5 5 48 95 100 40 89 5 6 42 93 86 56 74 46 59 57 54 14 5 5 0 0 0 0 0 0 0 0 0 0 0 0 0 0 0 4 5 5
0 0 5 2 3 0 0 0 0 0 0 0 0 3 3 4 10 66 94 100 90 89 100 99 100 99 63 90 100 98 83 31 1 1 1 5 2 0 0 0 0 0 0 0 0 0 4 5 70
0 0 0 0 0 0 0 0 0 2 40 0 0 0 0 75 87 76 100 100 100 100 100 100 100 100 92 72 99 100 97 41 5 0 0 0 5 0 0 0 0 0 0 0 0 0 0 0 0
0 0 0 0 0 0 0 0 0 67 97 3 0 0 12 100 100 94 99 100 100 100 100 79 100 100 100 100 97 93 34 13 3 5 7 2 0 0 0 4 1 0 0 0 0 0 0 0 0
0 0 0 0 0 0 0 21 22 100 98 95 1 47 99 87 98 100 100 100 100 100 100 100 100 99 49 67 100 97 81 64 68 48 4 5 2 0 0 2 5 0 0 0 0 0 0 0 0
0 0 0 0 0 0 0 20 66 94 100 38 77 92 40 100 96 91 100 100 100 100 100 100 100 100 100 27 5 43 100 92 66 41 44 92 34 0 2 0 3 1 2 1 5 5 0 0 0
0 0 0 0 0 0 0 0 84 70 25 5 13 11 1 37 62 100 100 96 100 100 100 100 100 100 95 99 84 10 0 45 92 100 100 71 100 88 80 20 1 2 2 0 0 3 0 0 0
0 0 0 0 0 0 0 0 9 38 9 20 0 2 5 20 100 100 100 100 100 100 100 100 100 100 99 44 5 17 5 0 0 58 23 59 96 95 100 100 90 8 25 46 4 4 0 0 0